| time (UTC) | temp C | wind direction | speed KPH | gust KPH | rain 1hr cm | rain 24hr cm | rain mn cm | humidity % | barometer mb |
| 20260503225514 | 2 | 272 | 9.7 | 17.7 | 0.00 | 0.00 | 0.00 | 66 | 959.0 |
| 20260503224944 | 2 | 291 | 11.3 | 17.7 | 0.00 | 0.00 | 0.00 | 66 | 959.1 |
| 20260503224444 | 2 | 292 | 11.3 | 17.7 | 0.00 | 0.00 | 0.00 | 65 | 959.1 |
| 20260503223944 | 2 | 275 | 9.7 | 14.5 | 0.00 | 0.00 | 0.00 | 65 | 959.2 |
| 20260503223444 | 2 | 296 | 9.7 | 16.1 | 0.00 | 0.00 | 0.00 | 66 | 959.4 |
| 20260503222944 | 2 | 266 | 9.7 | 16.1 | 0.00 | 0.00 | 0.00 | 66 | 959.4 |
| 20260503222414 | 2 | 249 | 9.7 | 16.1 | 0.00 | 0.00 | 0.00 | 65 | 959.5 |
| 20260503221914 | 2 | 281 | 9.7 | 17.7 | 0.00 | 0.00 | 0.00 | 65 | 959.5 |
| 20260503221414 | 2 | 284 | 9.7 | 17.7 | 0.00 | 0.00 | 0.00 | 64 | 959.5 |
| 20260503220914 | 2 | 262 | 8.0 | 17.7 | 0.00 | 0.00 | 0.00 | 64 | 960.0 |
| 20260503220344 | 2 | 260 | 9.7 | 19.3 | 0.00 | 0.00 | 0.00 | 64 | 960.1 |
| 20260503215844 | 2 | 251 | 9.7 | 19.3 | 0.00 | 0.00 | 0.00 | 64 | 960.0 |
| 20260503215344 | 3 | 251 | 9.7 | 14.5 | 0.00 | 0.00 | 0.00 | 63 | 960.0 |
| 20260503214844 | 3 | 250 | 8.0 | 14.5 | 0.00 | 0.00 | 0.00 | 63 | 960.1 |
| 20260503214344 | 3 | 247 | 8.0 | 14.5 | 0.00 | 0.00 | 0.00 | 63 | 960.1 |
| 20260503213844 | 3 | 242 | 8.0 | 17.7 | 0.00 | 0.00 | 0.00 | 62 | 960.2 |
| 20260503213344 | 3 | 272 | 8.0 | 17.7 | 0.00 | 0.00 | 0.00 | 62 | 960.2 |
| 20260503212844 | 3 | 288 | 8.0 | 16.1 | 0.00 | 0.00 | 0.00 | 62 | 960.1 |
| 20260503212344 | 3 | 294 | 8.0 | 12.9 | 0.00 | 0.00 | 0.00 | 63 | 960.2 |
| 20260503211844 | 3 | 247 | 8.0 | 12.9 | 0.00 | 0.00 | 0.00 | 63 | 960.2 |
| 20260503211314 | 3 | 283 | 8.0 | 12.9 | 0.00 | 0.00 | 0.00 | 61 | 960.3 |
| 20260503210814 | 3 | 274 | 6.4 | 11.3 | 0.00 | 0.00 | 0.00 | 62 | 960.3 |
| 20260503210244 | 3 | 291 | 6.4 | 12.9 | 0.00 | 0.00 | 0.00 | 61 | 960.4 |
| 20260503205744 | 3 | 310 | 6.4 | 12.9 | 0.00 | 0.00 | 0.00 | 61 | 960.3 |
| 20260503205243 | 3 | 299 | 6.4 | 11.3 | 0.00 | 0.00 | 0.00 | 61 | 960.4 |
| 20260503204743 | 3 | 296 | 6.4 | 11.3 | 0.00 | 0.00 | 0.00 | 62 | 960.4 |
| 20260503204243 | 3 | 291 | 6.4 | 11.3 | 0.00 | 0.00 | 0.00 | 61 | 960.5 |
| 20260503203743 | 3 | 317 | 6.4 | 11.3 | 0.00 | 0.00 | 0.00 | 60 | 960.6 |
| 20260503203243 | 3 | 297 | 6.4 | 11.3 | 0.00 | 0.00 | 0.00 | 60 | 961.0 |
| 20260503202743 | 3 | 284 | 6.4 | 11.3 | 0.00 | 0.00 | 0.00 | 61 | 961.0 |
| 20260503202243 | 3 | 283 | 6.4 | 11.3 | 0.00 | 0.00 | 0.00 | 60 | 961.0 |
| 20260503201743 | 3 | 342 | 6.4 | 12.9 | 0.00 | 0.00 | 0.00 | 60 | 961.0 |
| 20260503201243 | 3 | 294 | 6.4 | 12.9 | 0.00 | 0.00 | 0.00 | 60 | 961.0 |
| 20260503200743 | 3 | 283 | 6.4 | 9.7 | 0.00 | 0.00 | 0.00 | 60 | 961.1 |
| 20260503200243 | 3 | 286 | 6.4 | 9.7 | 0.00 | 0.00 | 0.00 | 59 | 961.2 |
| 20260503195743 | 3 | 285 | 4.8 | 9.7 | 0.00 | 0.00 | 0.00 | 60 | 961.2 |
| 20260503195243 | 3 | 267 | 4.8 | 9.7 | 0.00 | 0.00 | 0.00 | 60 | 961.3 |
| 20260503194743 | 4 | 284 | 4.8 | 9.7 | 0.00 | 0.00 | 0.00 | 60 | 961.5 |
| 20260503194243 | 4 | 270 | 4.8 | 9.7 | 0.00 | 0.00 | 0.00 | 58 | 961.5 |
| 20260503193713 | 4 | 317 | 4.8 | 12.9 | 0.00 | 0.00 | 0.00 | 57 | 961.5 |
| 20260503193213 | 4 | 315 | 4.8 | 12.9 | 0.00 | 0.00 | 0.00 | 58 | 961.5 |
| 20260503192713 | 4 | 323 | 4.8 | 14.5 | 0.00 | 0.00 | 0.00 | 57 | 961.5 |
| 20260503192143 | 4 | 295 | 4.8 | 14.5 | 0.00 | 0.00 | 0.00 | 57 | 961.5 |
| 20260503191643 | 4 | 306 | 6.4 | 14.5 | 0.00 | 0.00 | 0.00 | 56 | 961.4 |
| 20260503191143 | 4 | 344 | 4.8 | 12.9 | 0.00 | 0.00 | 0.00 | 56 | 961.6 |
| 20260503190643 | 4 | 26 | 4.8 | 12.9 | 0.00 | 0.00 | 0.00 | 56 | 961.6 |
| 20260503190143 | 5 | 14 | 4.8 | 11.3 | 0.00 | 0.00 | 0.00 | 55 | 962.0 |
| 20260503185643 | 5 | 278 | 6.4 | 11.3 | 0.00 | 0.00 | 0.00 | 55 | 962.0 |
| 20260503185143 | 5 | 293 | 4.8 | 11.3 | 0.00 | 0.00 | 0.00 | 55 | 962.0 |
| 20260503184643 | 5 | 15 | 4.8 | 11.3 | 0.00 | 0.00 | 0.00 | 54 | 962.0 |
| 20260503184143 | 5 | 255 | 4.8 | 11.3 | 0.00 | 0.00 | 0.00 | 53 | 962.0 |
| 20260503183643 | 5 | 22 | 3.2 | 11.3 | 0.00 | 0.00 | 0.00 | 51 | 962.0 |
| 20260503183143 | 5 | 315 | 4.8 | 11.3 | 0.00 | 0.00 | 0.00 | 50 | 962.0 |
| 20260503182643 | 5 | 45 | 4.8 | 11.3 | 0.00 | 0.00 | 0.00 | 50 | 962.0 |
| 20260503182143 | 5 | 315 | 4.8 | 11.3 | 0.00 | 0.00 | 0.00 | 49 | 962.0 |
| 20260503181643 | 5 | 256 | 6.4 | 12.9 | 0.00 | 0.00 | 0.00 | 50 | 962.0 |
| 20260503181143 | 5 | 16 | 6.4 | 12.9 | 0.00 | 0.00 | 0.00 | 48 | 962.0 |
| 20260503180642 | 5 | 21 | 4.8 | 12.9 | 0.00 | 0.00 | 0.00 | 50 | 962.0 |
| 20260503180142 | 5 | 277 | 4.8 | 12.9 | 0.00 | 0.00 | 0.00 | 50 | 962.0 |
| 20260503175612 | 5 | 295 | 8.0 | 16.1 | 0.00 | 0.00 | 0.00 | 50 | 962.2 |
| 20260503175112 | 5 | 317 | 8.0 | 16.1 | 0.00 | 0.00 | 0.00 | 51 | 962.0 |
| 20260503174612 | 5 | 20 | 8.0 | 16.1 | 0.00 | 0.00 | 0.00 | 49 | 962.2 |
| 20260503174113 | 5 | 45 | 6.4 | 14.5 | 0.00 | 0.00 | 0.00 | 48 | 962.3 |
| 20260503173542 | 6 | 69 | 6.4 | 12.9 | 0.00 | 0.00 | 0.00 | 49 | 962.4 |
| 20260503173042 | 6 | 28 | 6.4 | 12.9 | 0.00 | 0.00 | 0.00 | 48 | 962.4 |
| 20260503172542 | 6 | 299 | 4.8 | 9.7 | 0.00 | 0.00 | 0.00 | 47 | 962.5 |
| 20260503172042 | 5 | 55 | 4.8 | 9.7 | 0.00 | 0.00 | 0.00 | 49 | 962.5 |
| 20260503171512 | 6 | 8 | 4.8 | 9.7 | 0.00 | 0.00 | 0.00 | 47 | 962.5 |
| 20260503171012 | 6 | 293 | 3.2 | 9.7 | 0.00 | 0.00 | 0.00 | 45 | 962.5 |
| 20260503170442 | 6 | 228 | 3.2 | 8.0 | 0.00 | 0.00 | 0.00 | 44 | 963.0 |
| 20260503150841 | 8 | 3 | 3.2 | 6.4 | 0.00 | 0.00 | 0.00 | 45 | 964.0 |
| 20260503150341 | 8 | 119 | 3.2 | 6.4 | 0.00 | 0.00 | 0.00 | 44 | 964.0 |
| 20260503140241 | 7 | 88 | 6.4 | 19.3 | 0.00 | 0.00 | 0.00 | 43 | 965.0 |
| 20260503131041 | 8 | 17 | 4.8 | 14.5 | 0.00 | 0.00 | 0.00 | 43 | 965.1 |
| 20260503130511 | 8 | 92 | 4.8 | 12.9 | 0.00 | 0.00 | 0.00 | 41 | 965.1 |
| 20260503110811 | 9 | 186 | 6.4 | 14.5 | 0.00 | 0.00 | 0.00 | 43 | 965.6 |
| 20260503110311 | 9 | 122 | 6.4 | 14.5 | 0.00 | 0.00 | 0.00 | 45 | 966.0 |
| 20260503100240 | 5 | 90 | 4.8 | 17.7 | 0.00 | 0.00 | 0.00 | 57 | 966.1 |
| 20260503090140 | 5 | 127 | 6.4 | 20.9 | 0.00 | 0.00 | 0.00 | 51 | 966.1 |
| 20260503081510 | 6 | 165 | 4.8 | 16.1 | 0.00 | 0.00 | 0.00 | 54 | 966.5 |
| 20260503081010 | 5 | 220 | 4.8 | 16.1 | 0.00 | 0.00 | 0.00 | 55 | 966.5 |
| 20260503080440 | 5 | 114 | 8.0 | 19.3 | 0.00 | 0.00 | 0.00 | 58 | 966.6 |
| 20260503072810 | 3 | 191 | 8.0 | 20.9 | 0.00 | 0.00 | 0.00 | 66 | 966.6 |
| 20260503072240 | 3 | 119 | 6.4 | 20.9 | 0.00 | 0.00 | 0.00 | 65 | 967.0 |
| 20260503071740 | 3 | 99 | 6.4 | 24.1 | 0.00 | 0.00 | 0.00 | 62 | 967.0 |
| 20260503071210 | 3 | 184 | 6.4 | 24.1 | 0.00 | 0.00 | 0.00 | 64 | 966.6 |
| 20260503070709 | 4 | 78 | 6.4 | 20.9 | 0.00 | 0.00 | 0.00 | 60 | 966.6 |
| 20260503070209 | 6 | 134 | 6.4 | 20.9 | 0.00 | 0.00 | 0.00 | 57 | 966.6 |
| 20260503054939 | 5 | 121 | 6.4 | 24.1 | 0.00 | 0.00 | 0.00 | 59 | 966.4 |
| 20260503054439 | 6 | 105 | 4.8 | 17.7 | 0.00 | 0.00 | 0.00 | 60 | 966.4 |
| 20260503053939 | 6 | 183 | 4.8 | 24.1 | 0.00 | 0.00 | 0.00 | 60 | 966.3 |
| 20260503053439 | 5 | 103 | 6.4 | 24.1 | 0.00 | 0.00 | 0.00 | 61 | 966.4 |
| 20260503052939 | 5 | 87 | 4.8 | 20.9 | 0.00 | 0.00 | 0.00 | 61 | 966.3 |
| 20260503052439 | 6 | 155 | 4.8 | 20.9 | 0.00 | 0.00 | 0.00 | 60 | 966.4 |
| 20260503051939 | 6 | 21 | 4.8 | 16.1 | 0.00 | 0.00 | 0.00 | 59 | 966.5 |
| 20260503051409 | 6 | 71 | 4.8 | 16.1 | 0.00 | 0.00 | 0.00 | 61 | 966.5 |
| 20260503050909 | 6 | 47 | 4.8 | 20.9 | 0.00 | 0.00 | 0.00 | 60 | 966.5 |
| 20260503050409 | 5 | 122 | 3.2 | 20.9 | 0.00 | 0.00 | 0.00 | 61 | 966.4 |
| 20260503045909 | 5 | 128 | 4.8 | 20.9 | 0.00 | 0.00 | 0.00 | 61 | 966.3 |
| 20260503045409 | 5 | 96 | 4.8 | 20.9 | 0.00 | 0.00 | 0.00 | 64 | 966.3 |
| 20260503044839 | 4 | 201 | 4.8 | 20.9 | 0.00 | 0.00 | 0.00 | 65 | 966.2 |
| 20260503044339 | 4 | 171 | 4.8 | 16.1 | 0.00 | 0.00 | 0.00 | 65 | 966.2 |
| 20260503043839 | 3 | 182 | 4.8 | 14.5 | 0.00 | 0.00 | 0.00 | 67 | 966.1 |
| 20260503043339 | 3 | 114 | 6.4 | 20.9 | 0.00 | 0.00 | 0.00 | 66 | 966.1 |
| 20260503042839 | 3 | 58 | 6.4 | 20.9 | 0.00 | 0.00 | 0.00 | 68 | 966.2 |
| 20260503042339 | 3 | 159 | 6.4 | 17.7 | 0.00 | 0.00 | 0.00 | 67 | 966.1 |
| 20260503041839 | 3 | 123 | 4.8 | 17.7 | 0.00 | 0.00 | 0.00 | 67 | 966.2 |
| 20260503041309 | 3 | 220 | 4.8 | 16.1 | 0.00 | 0.00 | 0.00 | 67 | 966.1 |
| 20260503040809 | 3 | 50 | 4.8 | 16.1 | 0.00 | 0.00 | 0.00 | 68 | 966.1 |
| 20260503040309 | 2 | 170 | 4.8 | 17.7 | 0.00 | 0.00 | 0.00 | 70 | 966.0 |
| 20260503035809 | 2 | 161 | 6.4 | 17.7 | 0.00 | 0.00 | 0.00 | 72 | 966.2 |
| 20260503035239 | 2 | 178 | 8.0 | 17.7 | 0.00 | 0.00 | 0.00 | 74 | 966.1 |
| 20260503034738 | 1 | 188 | 8.0 | 14.5 | 0.00 | 0.00 | 0.00 | 73 | 966.3 |
| 20260503034238 | 1 | 192 | 6.4 | 11.3 | 0.00 | 0.00 | 0.00 | 73 | 966.3 |
| 20260503033738 | 1 | 193 | 4.8 | 9.7 | 0.00 | 0.00 | 0.00 | 72 | 966.2 |
| 20260503033238 | 1 | 207 | 3.2 | 9.7 | 0.00 | 0.00 | 0.00 | 73 | 966.2 |
| 20260503032738 | 1 | 204 | 3.2 | 11.3 | 0.00 | 0.00 | 0.00 | 72 | 966.2 |
| 20260503032238 | 1 | 60 | 3.2 | 14.5 | 0.00 | 0.00 | 0.00 | 73 | 966.4 |
| 20260503031738 | 1 | 79 | 6.4 | 14.5 | 0.00 | 0.00 | 0.00 | 76 | 966.2 |
| 20260503031209 | 0 | 191 | 6.4 | 12.9 | 0.00 | 0.00 | 0.00 | 78 | 966.2 |
| 20260503030708 | 0 | 160 | 6.4 | 12.9 | 0.00 | 0.00 | 0.00 | 79 | 966.1 |
| 20260503030208 | 0 | 198 | 4.8 | 9.7 | 0.00 | 0.00 | 0.00 | 81 | 966.2 |
| 20260503025638 | 0 | 186 | 3.2 | 8.0 | 0.00 | 0.00 | 0.00 | 81 | 966.2 |
| 20260503025138 | 0 | 254 | 4.8 | 11.3 | 0.00 | 0.00 | 0.00 | 82 | 966.3 |
| 20260503024638 | 0 | 216 | 6.4 | 14.5 | 0.00 | 0.00 | 0.00 | 82 | 966.2 |
| 20260503024138 | 0 | 190 | 6.4 | 14.5 | 0.00 | 0.00 | 0.00 | 83 | 966.2 |
| 20260503023638 | 0 | 174 | 4.8 | 14.5 | 0.00 | 0.00 | 0.00 | 83 | 966.0 |
| 20260503023138 | 0 | 259 | 6.4 | 12.9 | 0.00 | 0.00 | 0.00 | 83 | 966.1 |
| 20260503022638 | 0 | 172 | 6.4 | 16.1 | 0.00 | 0.00 | 0.00 | 83 | 966.0 |
| 20260503022138 | 0 | 165 | 4.8 | 16.1 | 0.00 | 0.00 | 0.00 | 83 | 966.0 |
| 20260503021638 | 0 | 192 | 4.8 | 17.7 | 0.00 | 0.00 | 0.00 | 84 | 966.0 |
| 20260503021108 | 0 | 87 | 4.8 | 17.7 | 0.00 | 0.00 | 0.00 | 84 | 966.0 |
| 20260503020608 | 0 | 202 | 4.8 | 17.7 | 0.00 | 0.00 | 0.00 | 83 | 966.0 |
| 20260503020038 | 0 | 163 | 4.8 | 17.7 | 0.00 | 0.00 | 0.00 | 83 | 966.0 |
| 20260503015538 | -1 | 136 | 4.8 | 17.7 | 0.00 | 0.00 | 0.00 | 83 | 966.0 |
| 20260503015038 | 0 | 88 | 6.4 | 17.7 | 0.00 | 0.00 | 0.00 | 82 | 966.1 |
| 20260503014538 | 0 | 103 | 6.4 | 16.1 | 0.00 | 0.00 | 0.00 | 82 | 966.0 |
| 20260503014038 | 0 | 176 | 8.0 | 14.5 | 0.00 | 0.00 | 0.00 | 82 | 966.1 |
| 20260503013538 | 0 | 185 | 8.0 | 14.5 | 0.00 | 0.00 | 0.00 | 82 | 966.1 |
| 20260503013038 | 0 | 193 | 6.4 | 14.5 | 0.00 | 0.00 | 0.00 | 83 | 966.0 |
| 20260503012538 | 0 | 196 | 9.7 | 20.9 | 0.00 | 0.00 | 0.00 | 83 | 966.0 |
| 20260503012038 | 0 | 186 | 11.3 | 25.7 | 0.00 | 0.00 | 0.00 | 83 | 966.0 |
| 20260503011508 | 0 | 185 | 11.3 | 27.4 | 0.00 | 0.00 | 0.00 | 84 | 966.0 |
| 20260503010938 | 0 | 176 | 9.7 | 27.4 | 0.00 | 0.00 | 0.00 | 84 | 966.0 |
| 20260503010438 | 0 | 182 | 8.0 | 22.5 | 0.00 | 0.00 | 0.00 | 85 | 966.0 |
| 20260503005908 | 0 | 150 | 6.4 | 17.7 | 0.00 | 0.00 | 0.00 | 85 | 966.0 |
| 20260503005408 | 0 | 60 | 4.8 | 14.5 | 0.00 | 0.00 | 0.00 | 85 | 966.0 |
| 20260503004908 | 0 | 135 | 4.8 | 20.9 | 0.00 | 0.00 | 0.00 | 85 | 966.0 |
| 20260503004408 | 0 | 136 | 4.8 | 20.9 | 0.00 | 0.00 | 0.00 | 85 | 966.0 |
| 20260503003838 | 0 | 152 | 4.8 | 14.5 | 0.00 | 0.00 | 0.00 | 85 | 966.0 |
| 20260503003338 | 0 | 109 | 8.0 | 20.9 | 0.00 | 0.00 | 0.00 | 85 | 966.0 |
| 20260503002808 | 0 | 2 | 8.0 | 20.9 | 0.00 | 0.00 | 0.00 | 84 | 966.0 |
| 20260503002308 | 0 | 183 | 8.0 | 20.9 | 0.00 | 0.00 | 0.00 | 84 | 966.0 |
| 20260503001808 | 0 | 179 | 8.0 | 22.5 | 0.00 | 0.00 | 0.00 | 84 | 966.0 |
| 20260503001308 | 0 | 189 | 9.7 | 22.5 | 0.00 | 0.00 | 0.00 | 84 | 966.0 |
| 20260503000808 | 0 | 182 | 9.7 | 24.1 | 0.00 | 0.00 | 0.00 | 84 | 966.0 |
| 20260503000238 | 0 | 168 | 8.0 | 24.1 | 0.00 | 0.00 | 0.00 | 84 | 966.0 |
| 20260502235738 | 0 | 161 | 6.4 | 24.1 | 0.00 | 0.00 | 0.00 | 84 | 966.0 |
| 20260502235238 | 0 | 101 | 8.0 | 20.9 | 0.00 | 0.00 | 0.00 | 83 | 966.0 |
| 20260502234708 | 0 | 94 | 8.0 | 20.9 | 0.00 | 0.00 | 0.00 | 82 | 965.6 |
| 20260502234208 | 0 | 208 | 9.7 | 20.9 | 0.00 | 0.00 | 0.00 | 82 | 966.0 |
| 20260502233638 | 0 | 148 | 9.7 | 25.7 | 0.00 | 0.00 | 0.00 | 82 | 965.6 |
| 20260502233138 | 0 | 183 | 9.7 | 25.7 | 0.00 | 0.00 | 0.00 | 83 | 966.0 |
| 20260502232637 | 0 | 164 | 6.4 | 24.1 | 0.00 | 0.00 | 0.00 | 84 | 965.6 |
| 20260502232137 | 0 | 95 | 6.4 | 24.1 | 0.00 | 0.00 | 0.00 | 84 | 966.0 |
| 20260502231637 | 0 | 138 | 6.4 | 20.9 | 0.00 | 0.00 | 0.00 | 85 | 966.0 |
| 20260502231107 | 0 | 53 | 6.4 | 20.9 | 0.00 | 0.00 | 0.00 | 86 | 966.0 |
| 20260502230538 | 0 | 147 | 8.0 | 22.5 | 0.00 | 0.00 | 0.00 | 86 | 965.6 |
| 20260502230037 | 0 | 89 | 8.0 | 22.5 | 0.00 | 0.00 | 0.00 | 86 | 966.0 |